Location: Allentsteig
(48.6833°N, 15.3167°E)
Time: 01:48:16
(UTC+00:00)

Cosmos 2279 Rocket - Pass Details

Date: 18 September 2020
Orbit: 963 x 979 km, 82.9° (Epoch: 29 October)

Event Time Altitude Azimuth Distance (km) Brightness Sun altitude
Exits shadow 20:20:51 84° 253° (WSW) 991 3.9 -30.1°
Maximum altitude 20:20:57 84° 278° (W) 990 3.9 -30.1°
Drops below altitude 10° 20:27:16 10° 8° (N) 2,743 6.8 -30.9°
Sets 20:29:48 0° 9° (N) 3,695 7.5 -31.1°
